Hourly Weather Shkoder

Today, 15 July, Wednesday

Time Temperature Precipitation Wind Pressure Humidity
00:00 +20°C° 0 mm 1 mps 738 mmHg 70%
01:00 +20°C° 0 mm 1 mps 738 mmHg 72%
02:00 +20°C° 0 mm 1 mps 738 mmHg 74%
03:00 +19°C° 0 mm 1 mps 738 mmHg 76%
04:00 +17°C° 0 mm 0 mps 738 mmHg 78%
05:00 +19°C° 0 mm 0 mps 738 mmHg 73%
06:00 +22°C° 0 mm 1 mps 738 mmHg 67%
07:00 +24°C° 0 mm 1 mps 739 mmHg 61%
08:00 +25°C° 0 mm 1 mps 739 mmHg 54%
09:00 +27°C° 0 mm 2 mps 739 mmHg 48%
10:00 +28°C° 0 mm 2 mps 739 mmHg 41%
11:00 +28°C° 0 mm 3 mps 739 mmHg 40%
12:00 +29°C° 0 mm 3 mps 739 mmHg 40%
13:00 +29°C° 0 mm 4 mps 739 mmHg 39%
14:00 +29°C° 0 mm 4 mps 739 mmHg 41%
15:00 +29°C° 0 mm 4 mps 738 mmHg 42%
16:00 +28°C° 0 mm 4 mps 738 mmHg 44%
17:00 +27°C° 0 mm 3 mps 738 mmHg 50%
18:00 +25°C° 0 mm 2 mps 738 mmHg 55%
19:00 +23°C° 0 mm 1 mps 738 mmHg 61%
20:00 +23°C° 0 mm 1 mps 739 mmHg 61%
21:00 +22°C° 0 mm 1 mps 739 mmHg 61%
22:00 +22°C° 0 mm 1 mps 739 mmHg 62%
23:00 +21°C° 0 mm 1 mps 739 mmHg 62%

Tomorrow, 16 July, Thursday

Time Temperature Precipitation Wind Pressure Humidity
00:00 +19°C° 0 mm 0 mps 739 mmHg 62%
01:00 +19°C° 0 mm 0 mps 739 mmHg 62%
02:00 +21°C° 0 mm 1 mps 738 mmHg 63%
03:00 +20°C° 0 mm 1 mps 738 mmHg 64%
04:00 +20°C° 0 mm 1 mps 738 mmHg 64%
05:00 +22°C° 0 mm 1 mps 738 mmHg 61%
06:00 +23°C° 0 mm 1 mps 738 mmHg 57%
07:00 +23°C° 0 mm 0 mps 738 mmHg 53%
08:00 +26°C° 0 mm 1 mps 738 mmHg 49%
09:00 +27°C° 0 mm 1 mps 738 mmHg 45%
10:00 +29°C° 0 mm 2 mps 738 mmHg 42%
11:00 +29°C° 0 mm 2 mps 738 mmHg 41%
12:00 +30°C° 0 mm 3 mps 738 mmHg 40%
13:00 +30°C° 0 mm 3 mps 738 mmHg 39%
14:00 +30°C° 0 mm 3 mps 737 mmHg 41%
15:00 +29°C° 0 mm 3 mps 737 mmHg 42%
16:00 +29°C° 0 mm 3 mps 737 mmHg 44%
17:00 +27°C° 0.1 mm 2 mps 737 mmHg 51%
18:00 +25°C° 0.1 mm 2 mps 737 mmHg 57%
19:00 +23°C° 0.1 mm 1 mps 737 mmHg 63%
20:00 +23°C° 0 mm 1 mps 737 mmHg 66%
21:00 +22°C° 0 mm 1 mps 737 mmHg 68%
22:00 +21°C° 0 mm 1 mps 738 mmHg 70%
23:00 +21°C° 0 mm 1 mps 737 mmHg 71%

Day after tomorrow, 17 July, Friday

Time Temperature Precipitation Wind Pressure Humidity
00:00 +20°C° 0 mm 2 mps 737 mmHg 72%
01:00 +19°C° 0 mm 2 mps 737 mmHg 72%
02:00 +19°C° 0 mm 2 mps 737 mmHg 73%
03:00 +19°C° 0 mm 2 mps 737 mmHg 74%
04:00 +18°C° 0 mm 2 mps 736 mmHg 75%
05:00 +20°C° 0 mm 2 mps 736 mmHg 70%
06:00 +23°C° 0 mm 1 mps 736 mmHg 65%
07:00 +25°C° 0 mm 1 mps 737 mmHg 60%
08:00 +26°C° 0 mm 1 mps 736 mmHg 55%
09:00 +28°C° 0 mm 1 mps 736 mmHg 50%
10:00 +30°C° 0 mm 1 mps 736 mmHg 45%
11:00 +30°C° 0 mm 2 mps 736 mmHg 43%
12:00 +31°C° 0 mm 3 mps 736 mmHg 41%
13:00 +31°C° 0 mm 3 mps 735 mmHg 38%
14:00 +31°C° 0 mm 3 mps 735 mmHg 39%
15:00 +31°C° 0 mm 3 mps 735 mmHg 39%
16:00 +30°C° 0 mm 3 mps 735 mmHg 40%
17:00 +28°C° 0 mm 3 mps 735 mmHg 47%
18:00 +26°C° 0 mm 2 mps 735 mmHg 54%
19:00 +24°C° 0 mm 1 mps 735 mmHg 61%
20:00 +23°C° 0 mm 1 mps 735 mmHg 64%
21:00 +22°C° 0 mm 1 mps 736 mmHg 66%
22:00 +21°C° 0 mm 1 mps 736 mmHg 69%
23:00 +20°C° 0 mm 1 mps 736 mmHg 69%

18 July, Saturday

Time Temperature Precipitation Wind Pressure Humidity
00:00 +20°C° 0 mm 1 mps 736 mmHg 70%
01:00 +19°C° 0 mm 2 mps 736 mmHg 70%
02:00 +18°C° 0 mm 2 mps 736 mmHg 75%
03:00 +18°C° 0 mm 2 mps 736 mmHg 79%
04:00 +18°C° 0 mm 2 mps 736 mmHg 83%
05:00 +19°C° 0 mm 2 mps 736 mmHg 78%
06:00 +21°C° 0 mm 2 mps 736 mmHg 74%
07:00 +24°C° 0 mm 2 mps 736 mmHg 69%
08:00 +24°C° 0.2 mm 2 mps 736 mmHg 66%
09:00 +25°C° 0.2 mm 2 mps 737 mmHg 63%
10:00 +26°C° 0.2 mm 2 mps 737 mmHg 60%
11:00 +25°C° 0.5 mm 2 mps 737 mmHg 62%
12:00 +25°C° 0.5 mm 2 mps 737 mmHg 64%
13:00 +25°C° 0.5 mm 2 mps 736 mmHg 66%
14:00 +25°C° 0.4 mm 2 mps 736 mmHg 66%
15:00 +25°C° 0.4 mm 2 mps 736 mmHg 66%
16:00 +25°C° 0.4 mm 2 mps 736 mmHg 66%
17:00 +24°C° 0.1 mm 2 mps 737 mmHg 70%
18:00 +23°C° 0.1 mm 2 mps 737 mmHg 74%
19:00 +22°C° 0.1 mm 1 mps 737 mmHg 78%
20:00 +20°C° 0 mm 2 mps 737 mmHg 80%
21:00 +19°C° 0 mm 2 mps 737 mmHg 83%
22:00 +18°C° 0 mm 2 mps 738 mmHg 86%
23:00 +18°C° 0 mm 2 mps 738 mmHg 86%

19 July, Sunday

Time Temperature Precipitation Wind Pressure Humidity
00:00 +17°C° 0 mm 2 mps 737 mmHg 86%
01:00 +17°C° 0 mm 2 mps 737 mmHg 86%
02:00 +17°C° 0 mm 2 mps 737 mmHg 86%
03:00 +17°C° 0 mm 2 mps 737 mmHg 86%
04:00 +16°C° 0 mm 2 mps 737 mmHg 86%
05:00 +18°C° 0 mm 2 mps 737 mmHg 81%
06:00 +19°C° 0 mm 2 mps 738 mmHg 76%
07:00 +21°C° 0 mm 2 mps 738 mmHg 70%
08:00 +24°C° 0 mm 2 mps 738 mmHg 65%
09:00 +25°C° 0 mm 1 mps 738 mmHg 59%
10:00 +27°C° 0 mm 1 mps 738 mmHg 53%
11:00 +28°C° 0 mm 2 mps 738 mmHg 50%
12:00 +28°C° 0 mm 3 mps 738 mmHg 48%
13:00 +29°C° 0 mm 3 mps 738 mmHg 45%
14:00 +29°C° 0 mm 3 mps 738 mmHg 46%
15:00 +29°C° 0 mm 4 mps 738 mmHg 46%
16:00 +28°C° 0 mm 4 mps 737 mmHg 47%
17:00 +26°C° 0 mm 3 mps 738 mmHg 54%
18:00 +24°C° 0 mm 2 mps 738 mmHg 61%
19:00 +21°C° 0 mm 2 mps 738 mmHg 68%
20:00 +20°C° 0 mm 2 mps 738 mmHg 71%
21:00 +20°C° 0 mm 1 mps 738 mmHg 75%
22:00 +19°C° 0 mm 1 mps 739 mmHg 79%
23:00 +19°C° 0 mm 1 mps 739 mmHg 78%

20 July, Monday

Time Temperature Precipitation Wind Pressure Humidity
00:00 +19°C° 0 mm 1 mps 739 mmHg 78%
01:00 +18°C° 0 mm 2 mps 738 mmHg 78%
02:00 +18°C° 0 mm 2 mps 738 mmHg 79%
03:00 +17°C° 0 mm 2 mps 738 mmHg 80%
04:00 +17°C° 0 mm 2 mps 738 mmHg 80%
05:00 +19°C° 0 mm 2 mps 738 mmHg 74%
06:00 +22°C° 0 mm 1 mps 739 mmHg 69%
07:00 +23°C° 0 mm 1 mps 739 mmHg 63%
08:00 +25°C° 0 mm 1 mps 739 mmHg 57%
09:00 +27°C° 0 mm 2 mps 739 mmHg 51%
10:00 +28°C° 0 mm 2 mps 739 mmHg 45%
11:00 +29°C° 0 mm 2 mps 739 mmHg 42%
12:00 +30°C° 0 mm 2 mps 739 mmHg 40%
13:00 +31°C° 0 mm 2 mps 739 mmHg 38%
14:00 +31°C° 0 mm 2 mps 739 mmHg 39%
15:00 +31°C° 0 mm 2 mps 738 mmHg 40%
16:00 +31°C° 0 mm 2 mps 738 mmHg 41%
17:00 +29°C° 0 mm 2 mps 738 mmHg 48%
18:00 +27°C° 0 mm 1 mps 738 mmHg 56%
19:00 +25°C° 0 mm 1 mps 738 mmHg 63%
20:00 +24°C° 0 mm 1 mps 739 mmHg 64%
21:00 +23°C° 0 mm 2 mps 739 mmHg 65%
22:00 +21°C° 0 mm 2 mps 739 mmHg 67%
23:00 +21°C° 0 mm 2 mps 739 mmHg 67%
Show more